Details From GCRR - Lanzarote
To LPMA - Madeira
Flight Number -
Tags generated
Created
Modified
Stats Distance 300 nm / 555 km
Max Altitude 34,000 ft / 10,363 m
Waypoints 6
Social Downloads 2
Likes 0
Share VATSIM

Download

Looking for another format? Having issues loading an existing format? Contact us
Advertisement - Login to hide

Notes

Basic altitude profile: - Ascent Rate: 2500ft/min - Ascent Speed: 250kts - Cruise Altitude: 35000ft - Cruise Speed: 420kts - Descent Rate: 1500ft/min - Descent Speed: 250kts Options: - Use NATs: yes - Use PACOTS: yes - Use low airways: yes - Use high airways: yes

Route

GCRR SARAY 3000N01500W GURKA UN729 BIMBO LPMA

ID Type Via Altitude Latitude Longitude Leg Dist Tot Dist Heading (true) Name
O GCRR APT - 0 ft / 0 m 28.94547˚ -13.60522˚ - 0 nm - Lanzarote
SARAY FIX - 20,200 ft / 6,157 m 29.75863˚ -14.15743˚ 56 nm 56 nm 330° / 329° -
3000N01500W LATLON - 34,000 ft / 10,363 m 30.00000˚ -15.00000˚ 46 nm 102 nm 288° / 288° -
GURKA FIX - 30,100 ft / 9,174 m 30.43400˚ -15.85026˚ 51 nm 154 nm 301° / 300° -
BIMBO FIX UN729 (AWY-HI) 24,500 ft / 7,468 m 31.42145˚ -16.03287˚ 60 nm 214 nm 351° / 351° -
O LPMA APT - 0 ft / 0 m 32.69770˚ -16.77445˚ 85 nm 299 nm 334° / 334° Madeira

Altitude Profile

Advertisement - Login to hide

Weather


0- 5 10 15 20 25 30 35+ Temperature / ° C

Clouds and Precipitation
Forecast for 2017-12-16 18:00 UTC. Updated 19 minutes ago

Ground ~20,000 ft ~40,000 ft Winds

GCRR

Details ICAO GCRR (ACE)
Name Lanzarote
Region Canary Islands
Timezone Atlantic/Canary (UTC+0.0)
Stats Elevation 0 ft / 0 m (AMSL)
Location 28.945466° -13.605223°
Runways 1
Magnetic Variation 3.976° W

METAR

GCRR 161330Z 34008KT 310V010 9999 SCT027 BKN033 22/16 Q1021

Decode

TAF

TAF GCRR 160800Z 1609/1709 34005KT 9999 FEW025 TX22/1614Z TN15/1706Z BECMG 1610/1612 03015KT BECMG 1619/1620 34005KT

Decode

Departure Runways

ID Width Length Bearing (true) Bearing (mag) Surface Threshold Offset Overrun Length
03 148 ft / 45 m 7,893 ft / 2,406 m 26.90° 30.88° Asphalt 197 ft / 60 m 197 ft / 60 m
21 148 ft / 45 m 7,893 ft / 2,406 m 206.91° 210.89° Asphalt 197 ft / 60 m 197 ft / 60 m

LPMA

Details ICAO LPMA (FNC)
Name Madeira
Region Portugal
Timezone Atlantic/Madeira (UTC+0.0)
Stats Elevation 192 ft / 59 m (AMSL)
Location 32.697704° -16.774449°
Runways 1
Magnetic Variation 4.981° W

METAR

LPMA 161330Z 03009KT 4000 +DZ BKN013 FEW015CB 19/17 Q1024

Decode

TAF

TAF LPMA 161100Z 1612/1712 36012KT 9999 SCT013 BKN030 TEMPO 1612/1620 6000 -RADZ BKN013 BECMG 1613/1615 04015KT PROB40 TEMPO 1618/1712 03018G28KT BECMG 1621/1624 SCT015 SCT030

Decode

Destination Runways

ID Width Length Bearing (true) Bearing (mag) Surface Threshold Offset Overrun Length
05 141 ft / 43 m 8,683 ft / 2,647 m 42.98° 47.96° Asphalt 472 ft / 144 m 0 ft / 0 m
23 141 ft / 43 m 8,683 ft / 2,647 m 222.99° 227.97° Asphalt 466 ft / 142 m 0 ft / 0 m

Popular Alternatives